MCF1TR LHSK-LHSA

Flight info

Callsign MCF1TR
Flight time 0h 7m
Altitude 2000
Route DCT
Aircraft DA42/L-SBDGRY/S

Departure

Time 2026-04-12 09:29
Airport Siófok-Kiliti Airfield (LHSK)

Arrival

Time 2026-04-12 09:36
Airport Szentkirályszabadja Airfield (LHSA)
Time Latitude Longitude Altitude Speed Heading
2026-04-12 09:18 46.86277 18.08888 422 ft 0 kts 141°
2026-04-12 09:26 46.86279 18.08896 427 ft 3 kts 14°
2026-04-12 09:26 46.86323 18.08861 428 ft 9 kts 324°
2026-04-12 09:27 46.86371 18.08892 428 ft 9 kts 59°
2026-04-12 09:27 46.86396 18.08964 428 ft 7 kts 61°
2026-04-12 09:27 46.86390 18.09000 430 ft 5 kts 154°
2026-04-12 09:27 46.86385 18.09003 421 ft 0 kts 153°
2026-04-12 09:28 46.86372 18.09015 429 ft 19 kts 150°
2026-04-12 09:28 46.86060 18.09256 423 ft 76 kts 149°
2026-04-12 09:28 46.85590 18.09502 657 ft 85 kts 192°
2026-04-12 09:28 46.85520 18.08657 821 ft 113 kts 313°
2026-04-12 09:29 46.86222 18.08052 1086 ft 122 kts 338°
2026-04-12 09:29 46.87066 18.07558 1258 ft 138 kts 344°
2026-04-12 09:29 46.88008 18.07112 1410 ft 147 kts 342°
2026-04-12 09:29 46.88964 18.06584 1716 ft 143 kts 339°
2026-04-12 09:30 46.89871 18.06056 2087 ft 139 kts 339°
2026-04-12 09:30 46.90830 18.05508 2156 ft 159 kts 339°
2026-04-12 09:30 46.91911 18.04896 2148 ft 172 kts 339°
2026-04-12 09:30 46.93041 18.04253 2147 ft 176 kts 339°
2026-04-12 09:31 46.94190 18.03602 2150 ft 178 kts 339°
2026-04-12 09:31 46.95351 18.02942 2149 ft 179 kts 339°
2026-04-12 09:31 46.96513 18.02274 2151 ft 180 kts 339°
2026-04-12 09:31 46.97676 18.01601 2150 ft 179 kts 339°
2026-04-12 09:32 46.98854 18.01006 2151 ft 179 kts 342°
2026-04-12 09:32 47.00037 18.00419 2150 ft 179 kts 342°
2026-04-12 09:32 47.01219 17.99828 2145 ft 180 kts 342°
2026-04-12 09:32 47.02405 17.99253 2150 ft 180 kts 342°
2026-04-12 09:33 47.03601 17.98687 2148 ft 180 kts 342°
2026-04-12 09:33 47.04798 17.98120 2144 ft 181 kts 342°
2026-04-12 09:33 47.05982 17.97566 2150 ft 182 kts 342°
2026-04-12 09:33 47.07183 17.96995 2146 ft 181 kts 342°
2026-04-12 09:34 47.08334 17.96476 2017 ft 159 kts 355°
2026-04-12 09:34 47.09212 17.96934 1834 ft 123 kts 39°
2026-04-12 09:34 47.09996 17.96950 1575 ft 120 kts 340°
2026-04-12 09:34 47.10459 17.96018 1510 ft 115 kts 265°
2026-04-12 09:35 47.10021 17.95310 1436 ft 97 kts 166°
2026-04-12 09:35 47.09484 17.95807 1284 ft 85 kts 143°
2026-04-12 09:35 47.08986 17.96171 1071 ft 77 kts 156°
2026-04-12 09:35 47.08500 17.96444 947 ft 74 kts 156°
2026-04-12 09:36 47.08096 17.96673 926 ft 48 kts 160°
2026-04-12 09:36 47.07864 17.96799 928 ft 27 kts 156°
2026-04-12 09:36 47.07754 17.96874 926 ft 7 kts 118°
2026-04-12 09:36 47.07762 17.96935 926 ft 7 kts 66°
2026-04-12 09:37 47.07781 17.97004 925 ft 7 kts 67°
2026-04-12 09:37 47.07797 17.97068 929 ft 8 kts 64°
2026-04-12 09:37 47.07808 17.97123 925 ft 1 kts
2026-04-12 09:37 47.07814 17.97111 926 ft 0 kts 239°
2026-04-12 09:42 47.07809 17.97101 929 ft 6 kts 234°
2026-04-12 09:42 47.07786 17.97025 925 ft 10 kts 249°
2026-04-12 09:43 47.07571 17.96962 925 ft 51 kts 158°
2026-04-12 09:43 47.07114 17.97201 1056 ft 75 kts 161°
2026-04-12 09:43 47.06551 17.97262 1282 ft 95 kts 196°
2026-04-12 09:44 47.05843 17.96913 1412 ft 119 kts 192°
2026-04-12 09:44 47.05016 17.96498 1569 ft 129 kts 194°
2026-04-12 09:44 47.04152 17.96093 1813 ft 130 kts 194°
2026-04-12 09:44 47.03287 17.95689 2044 ft 131 kts 192°
2026-04-12 09:45 47.02397 17.95344 2220 ft 134 kts 191°
2026-04-12 09:45 47.01451 17.94965 2175 ft 150 kts 192°
2026-04-12 09:45 47.00408 17.94557 2095 ft 159 kts 192°
2026-04-12 09:45 46.99337 17.94133 2124 ft 159 kts 193°
2026-04-12 09:46 46.98272 17.93637 2063 ft 165 kts 194°
2026-04-12 09:46 46.97158 17.93066 1860 ft 171 kts 197°
2026-04-12 09:46 46.96192 17.92067 1791 ft 176 kts 232°
2026-04-12 09:46 46.95688 17.90414 1669 ft 181 kts 246°
2026-04-12 09:47 46.95343 17.88661 1695 ft 178 kts 252°
2026-04-12 09:47 46.94734 17.87254 1926 ft 158 kts 211°
2026-04-12 09:47 46.93705 17.86974 1869 ft 157 kts 163°
2026-04-12 09:47 46.92725 17.87724 1721 ft 162 kts 148°
2026-04-12 09:48 46.91742 17.88641 1387 ft 172 kts 144°
2026-04-12 09:48 46.90664 17.88923 1729 ft 155 kts 192°
2026-04-12 09:48 46.89881 17.87853 1770 ft 167 kts 243°
2026-04-12 09:48 46.89915 17.86134 1712 ft 177 kts 294°
2026-04-12 09:49 46.90613 17.84626 1660 ft 181 kts 305°
2026-04-12 09:49 46.91171 17.83036 1761 ft 171 kts 273°
2026-04-12 09:49 46.91110 17.81907 1815 ft 167 kts 254°
2026-04-12 09:49 46.90826 17.80281 1927 ft 163 kts 241°
2026-04-12 09:50 46.90325 17.78759 1929 ft 167 kts 237°
2026-04-12 09:50 46.89805 17.77225 1944 ft 169 kts 238°
2026-04-12 09:50 46.89320 17.75635 1935 ft 175 kts 246°
2026-04-12 09:50 46.89014 17.73961 2108 ft 166 kts 253°
2026-04-12 09:51 46.88836 17.72310 2255 ft 162 kts 257°
2026-04-12 09:51 46.88687 17.70700 2403 ft 160 kts 254°
2026-04-12 09:51 46.88307 17.69178 2446 ft 158 kts 230°
2026-04-12 09:51 46.87598 17.67954 2493 ft 159 kts 222°
2026-04-12 09:52 46.86841 17.66785 2533 ft 158 kts 220°
2026-04-12 09:52 46.86072 17.65624 2502 ft 160 kts 218°
2026-04-12 09:52 46.85203 17.64583 2471 ft 162 kts 212°
2026-04-12 09:52 46.84297 17.63597 2483 ft 165 kts 216°
2026-04-12 09:53 46.83380 17.62579 2407 ft 169 kts 214°
2026-04-12 09:53 46.82797 17.61043 2259 ft 185 kts 253°
2026-04-12 09:53 46.82483 17.59278 2460 ft 170 kts 247°
2026-04-12 09:53 46.82102 17.57642 2357 ft 177 kts 245°
2026-04-12 09:54 46.81643 17.55962 2269 ft 178 kts 239°
2026-04-12 09:54 46.81071 17.54353 2133 ft 180 kts 237°
2026-04-12 09:54 46.80694 17.52597 2090 ft 187 kts 266°
2026-04-12 09:54 46.81041 17.50741 1793 ft 200 kts 293°
2026-04-12 09:55 46.81604 17.48973 1530 ft 189 kts 290°
2026-04-12 09:55 46.82038 17.47205 1335 ft 179 kts 283°
2026-04-12 09:55 46.81933 17.45475 1176 ft 172 kts 239°
2026-04-12 09:55 46.81152 17.44131 974 ft 175 kts 220°
2026-04-12 09:56 46.80195 17.43104 903 ft 171 kts 208°
2026-04-12 09:56 46.79587 17.41664 980 ft 171 kts 264°
2026-04-12 09:56 46.79681 17.39932 948 ft 172 kts 263°
2026-04-12 09:56 46.79178 17.38429 860 ft 167 kts 219°
2026-04-12 09:57 46.78261 17.37418 769 ft 167 kts 211°
2026-04-12 09:57 46.77338 17.36458 943 ft 154 kts 213°
2026-04-12 09:57 46.76504 17.35505 1098 ft 156 kts 218°
2026-04-12 09:57 46.76029 17.34105 1289 ft 161 kts 263°
2026-04-12 09:58 46.76201 17.32451 1364 ft 168 kts 278°
2026-04-12 09:58 46.76442 17.30765 1512 ft 169 kts 276°
2026-04-12 09:58 46.76664 17.29074 1591 ft 171 kts 275°
2026-04-12 09:58 46.76875 17.27329 1678 ft 172 kts 272°
2026-04-12 09:59 46.76702 17.25718 1772 ft 164 kts 238°
2026-04-12 09:59 46.75927 17.24558 1716 ft 159 kts 206°
2026-04-12 09:59 46.74936 17.23865 1714 ft 157 kts 196°
2026-04-12 09:59 46.73932 17.23227 1700 ft 160 kts 206°
2026-04-12 10:00 46.73101 17.22077 1639 ft 169 kts 226°
2026-04-12 10:00 46.72467 17.20631 1653 ft 168 kts 238°
2026-04-12 10:00 46.72262 17.18976 1503 ft 153 kts 269°
2026-04-12 10:00 46.72435 17.17598 1335 ft 130 kts 288°
2026-04-12 10:01 46.72953 17.16683 1324 ft 111 kts 295°
2026-04-12 10:01 46.73240 17.15611 1205 ft 113 kts 273°
2026-04-12 10:01 46.73248 17.14467 1143 ft 107 kts 243°
2026-04-12 10:01 46.72724 17.14230 1077 ft 94 kts 150°
2026-04-12 10:02 46.72070 17.14612 968 ft 107 kts 165°
2026-04-12 10:02 46.71406 17.14832 842 ft 91 kts 161°
2026-04-12 10:02 46.70768 17.15094 662 ft 97 kts 165°
2026-04-12 10:02 46.70179 17.15322 527 ft 76 kts 165°
2026-04-12 10:03 46.69701 17.15503 420 ft 71 kts 164°
2026-04-12 10:03 46.69330 17.15644 396 ft 16 kts 158°
2026-04-12 10:03 46.69324 17.15767 398 ft 11 kts 68°
2026-04-12 10:03 46.69364 17.15900 400 ft 17 kts 67°
2026-04-12 10:04 46.69372 17.16015 400 ft 10 kts 145°
2026-04-12 10:04 46.69336 17.16075 400 ft 7 kts 111°
2026-04-12 10:04 46.69335 17.16080 400 ft 0 kts 112°